Location: Caltech
(34.1382°N, 118.1253°W)
Time: 16:16:22
(UTC-08:00)

NOSS 3-2 (A) - Visible Passes

Search period start: 10 December 2016 00:00
Search period end: 20 December 2016 00:00
Orbit: 886 x 1322 km, 63.4° (Epoch: 05 December)

Date Brightness Start Highest point End Pass type
(mag) Time Alt. Az. Time Alt. Az. Time Alt. Az.
16 Dec 6.1 05:57:16 10° NNE 05:59:05 11° NNE 06:00:54 10° NE visible
18 Dec 5.9 06:15:00 10° N 06:20:22 20° NE 06:25:59 10° E visible
19 Dec 6.0 05:30:44 10° N 05:34:17 14° NE 05:37:56 10° ENE visible
